Location: *
(51.4660°N, 0.3360°W)
Time: 04:58:21
(UTC+00:00)

ATLAS 2AS CENTAUR R/B - Pass Details

Date: 19 September 2019
Orbit: 919 x 1292 km, 63.6° (Epoch: 21 September)

Event Time Altitude Azimuth Distance (km) Brightness Sun altitude
Rises 19:45:19 0° 315° (NW) 4,211 7.2 -15.6°
Reaches altitude 10° 19:48:24 10° 307° (NW) 3,200 6.4 -16.1°
Maximum altitude 19:55:15 37° 245° (WSW) 1,748 4.2 -17.1°
Drops below altitude 10° 20:01:34 10° 181° (S) 2,949 4.8 -17.9°
Enters shadow 20:03:33 - 175° (S) 3,589 5.2 -18.2°
